www.pogodaiklimat.ru

Погода и климат >> Архив погоды >> Антарктида >> Base Belgrano Ii


ПОГОДА в Base Belgrano Ii

  • Прогноз погоды в Base Belgrano Ii
  • Монитор погоды в Base Belgrano Ii
  • Климат города

АРХИВ ПОГОДЫ в Base Belgrano Ii

Время (UTC), дата Ветер
(напр.,м/с)
 
Видим.   Явления Облачность Т
(С)
Тd
(С)
f
(%)
Тe
(С)
Тes
(С)
Комфортность P
(гПа)
Po
(гПа)
Тmin
(С)
Tmax
(С)
R
(мм)
R24
(мм)
S
(см)
06 12.12 СВ 3 20 км 10/4 450 м
[Sc Ac As]
-0.3 -0.9 96 -5 -5 987.8 956.6
09 12.12 С 15 20 км 10/4 450 м
[Sc Ac As]
-0.6 -1.2 96 -11 -11 989.3 958.1
12 12.12 С 18 10 км позёмок {метель} 10/4 450 м
[Sc Ac As]
-1.4 -1.9 96 -12 -12 989.9 958.6 -3.5 -0.2
15 12.12 С 19 10 км позёмок {метель} 9/4 450 м
[Sc Ac As]
-0.9 -1.6 95 -12 -12 990.4 959.0
18 12.12 С 16 3000 м позёмок {метель} 9/0 2000 м
[Ac As]
-0.3 -0.9 96 -11 -11 990.9 959.7
21 12.12 С 10 20 км {метель} 10/0 2000 м
[Ac As]
-1.0 -1.7 95 -10 -10 991.7 960.4
00 13.12 штиль 0 20 км {метель} 10/0 2000 м
[Ac As]
-0.4 -0.5 99 -2 -1 991.2 959.8 -1.4 0.0
03 13.12 Ю 8 2000 м снег 10/10 270 м
[St]
-2.3 -2.6 98 -11 -11 990.6 959.3
06 13.12 штиль 0 20 км в посл. час снег 8/3 270 м
[St Ac As]
+0.9 0.0 94 -0 0 989.5 958.4 3
09 13.12 штиль 0 20 км 8/0 2000 м
[Ac As]
+2.3 -2.6 70 +2 +4 988.6 957.6
12 13.12 штиль 0 20 км 6/0 2000 м
[Ac und]
+2.6 -4.0 62 +2 +7 987.7 956.8 -2.3 +2.6 3
15 13.12 штиль 0 20 км 4/0 2000 м
[Ac und]
+4.4 -3.7 56 +4 +11 986.7 955.8
18 13.12 штиль 0 20 км 4/0 2000 м
[Ac trans]
+4.7 -4.8 50 +4 +10 985.3 954.6
21 13.12 Ю 4 20 км 1/0
[Cs]
+2.1 -3.9 64 -3 -1 984.1 953.4
00 14.12 ЮВ 5 20 км 1/0
[Ci fib]
-0.5 -4.9 72 -7 -6 983.3 952.5 -0.5 +5.5
03 14.12 Ю 9 20 км 1/0
[Ci fib]
-0.8 -4.3 77 -9 -9 981.0 950.2
06 14.12 Ю 8 20 км ясно +0.6 -1.2 88 -7 -6 978.7 948.2
09 14.12 штиль 0 20 км ясно +2.1 -4.3 63 +1 +7 977.4 946.9
12 14.12 штиль 0 20 км ясно +4.0 -6.7 46 +4 +13 опасность
простуды
975.8 945.3 -3.0 +4.0
15 14.12 штиль 0 20 км ясно +3.1 -6.0 51 +3 +13 опасность
простуды
975.2 944.6
18 14.12 СВ 6 20 км ясно +2.2 -6.5 53 -3 -1 975.4 944.9
21 14.12 СВ 3 20 км 1/1 360 м
[Cu hum]
-0.2 -1.4 92 -5 -2 976.2 945.6
00 15.12 СВ 10 20 км 3/1 360 м
[Cu hum Ac und]
-2.2 -2.8 96 -11 -11 977.0 946.4 -2.2 +5.0
03 15.12 З 9 20 км 1/1 360 м
[Cu hum]
-5.0 -5.6 96 -15 -14 977.7 946.8
06 15.12 СЗ 10 20 км 4/4 540 м
[Sc]
-5.4 -6.1 95 -15 -15 979.0 948.0
09 15.12 С 7 800 м туман 9/9 540 м
[Sc]
-4.2 -8.4 72 -12 -12 980.4 949.3
12 15.12 С 10 20 км в посл. час туман {снег} 9/9 600 м
[Sc]
-3.2 -7.0 75 -12 -12 980.4 949.3 -6.0 -2.2 0.0 <0.5
15 15.12 С 10 20 км 9/9 750 м
[Sc]
-3.6 -5.4 87 -13 -13 980.8 949.4
18 15.12 С 21 20 км 9/8 660 м
[Sc Ac As]
-3.8 -5.3 89 -16 -16 980.7 949.3
21 15.12 С 19 20 км 9/0 2000 м
[Ac As Cs]
-4.3 -5.9 89 -16 -16 982.0 950.6
00 16.12 В 2 20 км 9/4 660 м
[Sc Ac As Cs]
-3.7 -5.2 89 -7 -7 984.0 952.6 -6.0 -2.0
03 16.12 ЮВ 6 20 км 8/0 2000 м
[Ac As Cs]
-4.3 -6.2 87 -12 -12 984.5 953.0
06 16.12 В 13 20 км 3/0
[Cs]
-3.5 -4.9 90 -14 -14 983.7 952.2
09 16.12 С 11 20 км 5/0 2000 м
[Ac As Cs]
-3.0 -4.0 93 -13 -13 984.4 953.0
12 16.12 В 5 20 км 8/0 2000 м
[Ac As]
-0.8 -1.8 93 -7 -6 984.6 953.4 -6.5 -0.8
15 16.12 СВ 11 20 км 8/1 660 м
[Sc Ac As Cs]
-0.8 -1.2 97 -10 -10 984.1 952.9
18 16.12 СВ 10 20 км 9/3 750 м
[Sc Ac As Cs]
-2.4 -3.3 94 -12 -12 984.3 953.0
21 16.12 СВ 14 20 км 10/5 750 м
[Sc Ac As]
-3.5 -4.3 94 -14 -14 984.6 953.3
00 17.12 В 11 20 км 5/1 600 м
[Sc Ac As Cc]
-4.5 -5.4 93 -15 -15 985.5 954.2 -4.5 +0.2
03 17.12 В 11 20 км 6/0 2000 м
[Ac As Cs]
-5.3 -6.3 93 -16 -16 985.2 953.8
06 17.12 В 12 20 км 5/0 2000 м
[Ac und Cs]
-5.5 -6.6 92 -16 -16 985.2 953.8
09 17.12 ЮВ 10 20 км 8/0 2000 м
[Ac As Cs]
-2.3 -4.2 87 -11 -11 985.8 954.5
12 17.12 В 2 20 км 4/0 2000 м
[Ac As Cs]
-1.8 -2.0 99 -5 0 986.2 954.8 -6.0 -1.8
15 17.12 СВ 11 20 км 4/0 2000 м
[Ac und Cs]
-0.3 -0.6 98 -9 -9 984.5 953.2
18 17.12 ЮВ 11 20 км 4/0 2000 м
[Ac As Cs]
-0.5 -1.4 94 -9 -9 982.9 951.6
21 17.12 В 9 20 км 5/0 2000 м
[Ac trans Cs]
+0.3 -0.8 92 -8 -8 982.1 951.0
00 18.12 В 19 20 км 10/0 2000 м
[Ac As]
-2.1 -2.7 96 -13 -13 979.8 948.8 -3.5 +0.6
03 18.12 В 21 10 км позёмок {метель} 10/0 2000 м
[Ac As]
-2.1 -3.3 91 -14 -14 976.7 945.8
06 18.12 В 17 10 км позёмок {метель} 10/0 2000 м
[Ac As]
-2.4 -3.0 96 -13 -13 975.0 944.2
09 18.12 С 3 6000 м слабый снег {метель} 10/0 2000 м
[As op]
-0.6 -1.5 94 -5 -4 973.7 943.0
12 18.12 ЮВ 10 10 км в посл. час снег 10/5 360 м
[St As op]
+0.7 -0.6 91 -7 -7 975.0 944.2 -4.5 +0.7 5 1
15 18.12 В 11 10 км позёмок {метель} 10/4 400 м
[St As op]
+1.6 -3.0 71 -6 -6 976.6 945.8
18 18.12 ЮВ 5 10 км дымка {метель} 10/10 360 м
[St]
+1.5 -1.6 80 -4 -4 978.6 947.8
21 18.12 В 10 3000 м сильный позёмок {метель} 10/10 360 м
[St]
+1.3 -1.6 81 -6 -6 980.0 949.2
00 19.12 ЮВ 14 10 км позёмок {метель} 10/10 360 м
[St]
+0.3 -0.8 92 -9 -9 981.7 950.9 -1.9 +1.7
03 19.12 В 11 5000 м позёмок {метель} 10/10 360 м
[St]
+0.2 -0.3 96 -9 -9 983.7 952.9

 

Местоположение метеостанции Base Belgrano Ii (Антарктида): широта -77.86 долгота -34.61 высота над уровнем моря 251 м.

В архиве по умолчанию представлена погода в Base Belgrano Ii за последнюю неделю. Архивные данные за месяц целиком и за предыдущие месяцы, начиная с января 2011 года, Вы можете получить, выбрав интересующий диапазон дат из раскрывающегося списка и нажав кнопку "Ввод!".


*Определитесь, кто Вы:
робот инопланетянин человек

Внимание! Время в таблицах - всемирное. Для получения местного времени необходимо прибавить поправку, которая в Base Belgrano Ii равна 0 ч.

Смотрите также архив погоды в соседних городах и на ближайших метеорологических станциях:

Погода в Halley (Антарктида) (332 км)
Погода в Limbert Aws (Антарктида) (653 км)
Погода в Nordenskiold Base (Антарктида) (790 км)
Погода в Kohnen Ep9 (Антарктида) (941 км)
Погода в Butler Island (Антарктида) (953 км)
Погода в Sky Blue (Антарктида) (1008 км)
Погода в Soerasen (Антарктида) (1009 км)
Погода в Neumayer Station (Антарктида) (1110 км)
Погода в SANAE (Антарктида) (1130 км)
Погода в Fossil Bluff (Антарктида) (1205 км)

Пояснения к столбцам:

Ветер - указаны скорость ветра в м/с - средняя за 10 мин, порывы в срок и между сроками (в фигурных скобках) и направление, откуда дует ветер: С - северный, СВ - северо-восточный, В - восточный, ЮВ - юго-восточный, Ю - южный, ЮЗ - юго-западный, З - западный, СЗ - северо-западный.
Видимость - горизонтальная дальность видимости в метрах или километрах. При видимости от 1 до 10 км при отсутствии осадков обычно наблюдается дымка, при ухудшении видимости до 1 км и менее - туман. В сухую погоду видимость может ухудшаться дымом, пылью или мглою.
Явления - указаны атмосферные явления, наблюдавшиеся в срок или в последний час перед сроком; фигурными скобками обозначены явления, наблюдавшиеся между сроками (за 1-3 часа до срока); квадратными скобками обозначены град или гололедные отложения с указанием их диаметра в мм.
Облачность - указаны через наклонную черту общая и нижняя облачность в баллах и высота нижней границы облаков в метрах; квадратными скобками обозначены формы облаков: Ci - перистые, Cs - перисто-слоистые, Cc - перисто-кучевые, Ac - высококучевые, As - высокослоистые, Sc - слоисто-кучевые, Ns - слоисто-дождевые, Cu - кучевые, Cb - кучево-дождевые. Подробнее классификацию облаков см. в Атласе облаков (PDF).
T - Температура воздуха - температура, измеренная на высоте 2 м над землей.
Td - Температура точки росы - температура, при понижении до которой содержащийся в воздухе водяной пар достигнет насыщения.
f - Относительная влажность воздуха - влажноcть воздуха, измеренная на высоте 2 м над землей.
Te - Эффективная температура - температура, которую ощущает одетый по сезону человек в тени. Характеристика душности погоды. При расчете учитывается влияние влажности воздуха и скорости ветра на теплоощущения человека.
Tes - Эффективная температура на солнце - температура, которую ощущает человек, с поправкой на солнечный нагрев. Характеристика знойности погоды. Зависит от высоты солнца над горизонтом, облачности и скорости ветра. Ночью, в пасмурную погоду, а также при ветре 12 м/с и более поправка равна нулю.
P - Атмосферное давление - приведенное к уровню моря атмосферное давление.
Po - Атмосферное давление - измеренное на уровне метеостанции атмосферное давление.
Tmin - Минимальная температура - минимум температуры воздуха на высоте 2 м над землей.
Tmax - Максимальная температура - максимум температуры воздуха на высоте 2 м над землей.
R - Количество осадков - Количество выпавших осадков за период времени, мм. При наведении курсора мыши на число - период времени, за который выпало указанное количество осадков.
R24 - Количество осадков - Количество выпавших осадков за 24 часа, мм.
S - Снежный покров - Высота снежного покрова, см. При наведении курсора мыши на число - состояние снежного покрова и степень покрытия местности в баллах.